Voltar ao catálogo

FENGYUN 1C DEB

AtivoPO
NORAD 30946·DEBRIS·🇨🇳 China

Lançado May 10, 1999 de Taiyuan Satellite Launch Center

Loading…

Próximas Passagens (próximas 24 horas)

TLE

AtualizadoSource: Space-Track

Época: Sep 14, 2026, 08:21 UTC

1 30946U 99025BAL 26257.34793135  .00001293  00000-0  33589-3 0  9990
2 30946  99.0700  37.3275 0088496  90.0170 300.8608 14.49293682 23264

Acompanhe FENGYUN 1C DEB em tempo real com AllMySat

Download on the App Store